Weather Roundup
Issued by NWS Chicago, IL

Home | Current Version | Previous Version | Graphics & Text | Print | Product List | Glossary On
Versions: 1 2 3 4 5 6 7 8 9 10 11 12 13 14 15 16 17 18 19 20 21 22 23 24 25 26 27 28 29 30 31 32 33 34 35 36 37 38 39 40 41 42 43 44 45 46 47 48 49 50
000
NZUS59 KLOT 142310
HRRLOT

CHICAGO AREA WEATHER ROUNDUP
NATIONAL WEATHER SERVICE CHICAGO/ROMEOVILLE IL
600 PM CDT SUN SEP 14 2014

NOTE: "FAIR" INDICATES FEW OR NO CLOUDS BELOW 12,000 FEET WITH NO
SIGNIFICANT WEATHER AND/OR OBSTRUCTIONS TO VISIBILITY.

* THESE STATIONS ARE NOT UNDER NWS QUALITY CONTROL. THEY ALSO MAY NOT
  REPORT WEATHER SUCH AS PRECIPITATION OR FOG.

ILZ005-006-012>014-019>023-150000-
NORTHEAST ILLINOIS

CITY           SKY/WX    TMP DP  RH WIND       PRES   REMARKS
OHARE          MOSUNNY   64  42  44 SW8       30.18S
MIDWAY         MOSUNNY   66  44  45 W8        30.18F
AURORA         SUNNY     64  43  46 SW7       30.18F
LANSING*       SUNNY     64  45  50 SW7       30.19F
JOLIET*        SUNNY     65  40  41 SW6       30.19S
WAUKEGAN       SUNNY     62  45  53 S10       30.16F
DUPAGE AIRPORT SUNNY     64  43  46 SW9       30.17F
WHEELING       SUNNY     65  43  44 S9        30.19S
KANKAKEE*      SUNNY     64  46  51 SW5       30.20F
MORRIS*        SUNNY     66  46  48 SW3       30.18F
LEWIS AIRPORT* SUNNY     62  42  48 SW5       30.18F
NORTHERLY IS     N/A     65  40  39 S5          N/A
$$

WIZ051-052-058>065-066-070>072-150000-
SOUTHEAST WISCONSIN

CITY           SKY/WX    TMP DP  RH WIND       PRES   REMARKS
MILWAUKEE      MOSUNNY   63  43  48 SW13      30.16S
KENOSHA*       SUNNY     62  46  55 SW8       30.17S
RACINE*        SUNNY     63  44  50 SW7       30.17F
BURLINGTON     SUNNY     61  44  54 SW9       30.16S
WAUKESHA       SUNNY     61  43  51 SW12      30.16
WEST BEND      SUNNY     63  43  48 SW9       30.14S
$$

INZ001>003-010>013-019-020-150000-
NORTHWEST INDIANA

CITY           SKY/WX    TMP DP  RH WIND       PRES   REMARKS
GARY*          MOSUNNY   66  43  42 SW7       30.19F
MICHIGAN CITY* NOT AVBL
RENSSELAER*    NOT AVBL
VALPARAISO     SUNNY     63  45  51 W7        30.21S
$$

LMZ740>746-150000-
SOUTHERN LAKE MICHIGAN

STATION/POSITION TIME  SKY/WX   TEMP WIND        PRES    VSBY
                                AIR  DIR/SP/G
                 (UTC)          (F)  (DEG/KT/KT) (MB)    (MI)
HARRISON CRIB    2300            64  210/ 10/ 13   N/A
BURNHAM HARBOR   2300            65  240/  7/ 11   N/A
CALUMET HARBOR   2300            65  200/  6/  8 1020.8F
BURNS HARBOR     NOT AVBL
MICHIGAN CITY    2300            63  220/  3/  5   N/A
$$

ABBREVIATIONS USED IN REMARKS
   TC - TEMPERATURE IN CELSIUS
  WCI - WIND CHILL INDEX
   HX - HEAT INDEX
  VSB - VISIBILITY
$$



USA.gov is the U.S. government's official web portal to all federal, state and local government web resources and services.